• In Belarus
  • List of Countries
  • For 7 days
  • Water Temperature
  • Satellite Maps
  • Weather Map
  • Weather Widgets
  • user-avatar
    Login

    Hourly Weather Jemielno

    Today, 21 September, Friday

    Time Temperature Precipitation Wind Pressure Humidity
    00:00 +21°C° 0 mm 3 mps 752 mmHg 62%
    01:00 +21°C° 0 mm 3 mps 752 mmHg 63%
    02:00 +21°C° 0 mm 3 mps 752 mmHg 65%
    03:00 +20°C° 0 mm 3 mps 752 mmHg 67%
    04:00 +20°C° 0 mm 3 mps 751 mmHg 69%
    05:00 +20°C° 0 mm 3 mps 751 mmHg 69%
    06:00 +20°C° 0 mm 3 mps 751 mmHg 69%
    07:00 +20°C° 0 mm 4 mps 751 mmHg 68%
    08:00 +23°C° 0 mm 4 mps 750 mmHg 61%
    09:00 +26°C° 0 mm 5 mps 750 mmHg 54%
    10:00 +28°C° 0 mm 5 mps 750 mmHg 47%
    11:00 +29°C° 0 mm 6 mps 749 mmHg 43%
    12:00 +29°C° 0 mm 6 mps 748 mmHg 39%
    13:00 +30°C° 0 mm 6 mps 748 mmHg 36%
    14:00 +30°C° 0 mm 6 mps 747 mmHg 37%
    15:00 +30°C° 0 mm 6 mps 747 mmHg 38%
    16:00 +29°C° 0 mm 6 mps 746 mmHg 39%
    17:00 +28°C° 0.2 mm 6 mps 746 mmHg 46%
    18:00 +26°C° 0.2 mm 6 mps 747 mmHg 52%
    19:00 +23°C° 0.2 mm 6 mps 747 mmHg 58%
    20:00 +21°C° 0.4 mm 6 mps 748 mmHg 63%
    21:00 +17°C° 0.4 mm 6 mps 749 mmHg 69%
    22:00 +15°C° 0.4 mm 6 mps 750 mmHg 74%
    23:00 +14°C° 0.3 mm 5 mps 751 mmHg 74%

    Tomorrow, 22 September, Saturday

    Time Temperature Precipitation Wind Pressure Humidity
    00:00 +14°C° 0.3 mm 4 mps 752 mmHg 74%
    01:00 +13°C° 0.3 mm 3 mps 752 mmHg 74%
    02:00 +13°C° 0 mm 3 mps 753 mmHg 73%
    03:00 +13°C° 0 mm 3 mps 753 mmHg 71%
    04:00 +12°C° 0 mm 3 mps 753 mmHg 70%
    05:00 +12°C° 0 mm 4 mps 754 mmHg 69%
    06:00 +12°C° 0 mm 4 mps 754 mmHg 68%
    07:00 +12°C° 0 mm 5 mps 754 mmHg 67%
    08:00 +13°C° 0 mm 5 mps 754 mmHg 62%
    09:00 +14°C° 0 mm 6 mps 754 mmHg 56%
    10:00 +16°C° 0 mm 6 mps 754 mmHg 50%
    11:00 +16°C° 0 mm 6 mps 754 mmHg 49%
    12:00 +16°C° 0 mm 7 mps 754 mmHg 47%
    13:00 +17°C° 0 mm 7 mps 754 mmHg 45%
    14:00 +17°C° 0 mm 6 mps 754 mmHg 45%
    15:00 +17°C° 0 mm 6 mps 754 mmHg 44%
    16:00 +17°C° 0 mm 6 mps 754 mmHg 44%
    17:00 +16°C° 0 mm 5 mps 754 mmHg 47%
    18:00 +15°C° 0 mm 5 mps 754 mmHg 50%
    19:00 +14°C° 0 mm 4 mps 755 mmHg 54%
    20:00 +14°C° 0 mm 4 mps 755 mmHg 55%
    21:00 +13°C° 0 mm 4 mps 755 mmHg 57%
    22:00 +13°C° 0 mm 4 mps 755 mmHg 58%
    23:00 +12°C° 0 mm 4 mps 755 mmHg 60%

    Day after tomorrow, 23 September, Sunday

    Time Temperature Precipitation Wind Pressure Humidity
    00:00 +12°C° 0 mm 4 mps 756 mmHg 62%
    01:00 +11°C° 0 mm 4 mps 756 mmHg 64%
    02:00 +11°C° 0 mm 3 mps 756 mmHg 65%
    03:00 +10°C° 0 mm 3 mps 756 mmHg 67%
    04:00 +10°C° 0 mm 3 mps 756 mmHg 68%
    05:00 +10°C° 0 mm 3 mps 756 mmHg 67%
    06:00 +11°C° 0 mm 3 mps 756 mmHg 66%
    07:00 +11°C° 0 mm 3 mps 756 mmHg 64%
    08:00 +12°C° 0 mm 4 mps 755 mmHg 61%
    09:00 +13°C° 0 mm 4 mps 755 mmHg 58%
    10:00 +15°C° 0 mm 4 mps 755 mmHg 54%
    11:00 +15°C° 0 mm 4 mps 755 mmHg 54%
    12:00 +15°C° 0 mm 4 mps 754 mmHg 54%
    13:00 +17°C° 0 mm 4 mps 754 mmHg 53%
    14:00 +15°C° 0.1 mm 4 mps 753 mmHg 58%
    15:00 +16°C° 0.1 mm 3 mps 752 mmHg 63%
    16:00 +14°C° 0.1 mm 3 mps 752 mmHg 67%
    17:00 +13°C° 0.4 mm 3 mps 751 mmHg 73%
    18:00 +13°C° 0.4 mm 3 mps 750 mmHg 79%
    19:00 +13°C° 0.4 mm 2 mps 749 mmHg 85%
    20:00 +12°C° 2 mm 3 mps 747 mmHg 86%
    21:00 +13°C° 2 mm 4 mps 746 mmHg 88%
    22:00 +13°C° 2 mm 5 mps 744 mmHg 89%
    23:00 +14°C° 1.9 mm 5 mps 743 mmHg 89%

    24 September, Monday

    Time Temperature Precipitation Wind Pressure Humidity
    00:00 +16°C° 1.9 mm 6 mps 741 mmHg 88%
    01:00 +17°C° 1.9 mm 6 mps 739 mmHg 87%
    02:00 +16°C° 1.5 mm 7 mps 739 mmHg 85%
    03:00 +16°C° 1.5 mm 8 mps 738 mmHg 83%
    04:00 +15°C° 1.5 mm 9 mps 738 mmHg 81%
    05:00 +12°C° 0.3 mm 9 mps 740 mmHg 81%
    06:00 +9°C° 0.3 mm 10 mps 742 mmHg 81%
    07:00 +7°C° 0.3 mm 11 mps 745 mmHg 81%
    08:00 +8°C° 0.1 mm 11 mps 747 mmHg 77%
    09:00 +9°C° 0.1 mm 11 mps 749 mmHg 72%
    10:00 +9°C° 0.1 mm 10 mps 752 mmHg 68%
    11:00 +11°C° 0.2 mm 10 mps 752 mmHg 64%
    12:00 +12°C° 0.2 mm 10 mps 753 mmHg 59%
    13:00 +12°C° 0.2 mm 10 mps 754 mmHg 54%
    14:00 +12°C° 0.1 mm 10 mps 754 mmHg 52%
    15:00 +12°C° 0.1 mm 9 mps 755 mmHg 50%
    16:00 +12°C° 0.1 mm 9 mps 756 mmHg 49%
    17:00 +11°C° 0.1 mm 7 mps 757 mmHg 53%
    18:00 +10°C° 0.1 mm 6 mps 758 mmHg 57%
    19:00 +9°C° 0.1 mm 5 mps 759 mmHg 61%
    20:00 +8°C° 0 mm 5 mps 759 mmHg 64%
    21:00 +8°C° 0 mm 5 mps 760 mmHg 66%
    22:00 +7°C° 0 mm 4 mps 761 mmHg 68%
    23:00 +7°C° 0 mm 4 mps 761 mmHg 70%

    25 September, Tuesday

    Time Temperature Precipitation Wind Pressure Humidity
    00:00 +7°C° 0 mm 5 mps 762 mmHg 71%
    01:00 +6°C° 0 mm 5 mps 762 mmHg 73%
    02:00 +6°C° 0 mm 5 mps 763 mmHg 75%
    03:00 +6°C° 0 mm 5 mps 763 mmHg 77%
    04:00 +5°C° 0 mm 4 mps 764 mmHg 79%
    05:00 +5°C° 0 mm 4 mps 764 mmHg 78%
    06:00 +6°C° 0 mm 4 mps 765 mmHg 78%
    07:00 +6°C° 0 mm 4 mps 765 mmHg 78%
    08:00 +7°C° 0 mm 5 mps 766 mmHg 68%
    09:00 +9°C° 0 mm 5 mps 766 mmHg 58%
    10:00 +12°C° 0 mm 5 mps 767 mmHg 48%
    11:00 +12°C° 0 mm 5 mps 767 mmHg 45%
    12:00 +13°C° 0 mm 5 mps 767 mmHg 42%
    13:00 +14°C° 0 mm 5 mps 767 mmHg 39%
    14:00 +14°C° 0 mm 5 mps 767 mmHg 39%
    15:00 +14°C° 0 mm 5 mps 767 mmHg 40%
    16:00 +13°C° 0 mm 5 mps 767 mmHg 40%
    17:00 +12°C° 0 mm 4 mps 767 mmHg 45%
    18:00 +11°C° 0 mm 4 mps 767 mmHg 49%
    19:00 +10°C° 0 mm 3 mps 767 mmHg 54%
    20:00 +10°C° 0 mm 4 mps 767 mmHg 55%
    21:00 +10°C° 0 mm 4 mps 767 mmHg 55%
    22:00 +9°C° 0 mm 5 mps 767 mmHg 56%
    23:00 +9°C° 0.1 mm 5 mps 767 mmHg 58%

    26 September, Wednesday

    Time Temperature Precipitation Wind Pressure Humidity
    00:00 +9°C° 0.1 mm 6 mps 766 mmHg 60%
    01:00 +9°C° 0.1 mm 6 mps 766 mmHg 61%
    02:00 +9°C° 0 mm 6 mps 766 mmHg 65%
    03:00 +8°C° 0 mm 6 mps 766 mmHg 70%
    04:00 +8°C° 0 mm 6 mps 765 mmHg 74%
    05:00 +8°C° 0 mm 6 mps 766 mmHg 76%
    06:00 +8°C° 0 mm 6 mps 766 mmHg 79%
    07:00 +8°C° 0 mm 6 mps 766 mmHg 81%
    08:00 +9°C° 0 mm 6 mps 766 mmHg 77%
    09:00 +10°C° 0 mm 6 mps 766 mmHg 73%
    10:00 +13°C° 0 mm 6 mps 766 mmHg 68%
    11:00 +13°C° 0 mm 6 mps 766 mmHg 66%
    12:00 +13°C° 0 mm 5 mps 766 mmHg 64%
    13:00 +14°C° 0 mm 5 mps 766 mmHg 62%
    14:00 +14°C° 0 mm 5 mps 766 mmHg 62%
    15:00 +14°C° 0 mm 5 mps 766 mmHg 62%
    16:00 +14°C° 0 mm 4 mps 766 mmHg 62%
    17:00 +13°C° 0 mm 4 mps 766 mmHg 66%
    18:00 +11°C° 0 mm 3 mps 766 mmHg 71%
    19:00 +10°C° 0 mm 2 mps 766 mmHg 75%
    20:00 +10°C° 0 mm 2 mps 766 mmHg 77%
    21:00 +9°C° 0 mm 2 mps 766 mmHg 80%
    22:00 +9°C° 0 mm 2 mps 767 mmHg 82%
    23:00 +9°C° 0 mm 2 mps 766 mmHg 83%
    Show more